Location: Taunton
(51.0167°N, 3.1000°W)
Time: 05:07:13
(UTC+00:00)

ISS - Visible Passes

Search period start: 26 February 2020 00:00
Search period end: 07 March 2020 00:00
Orbit: 415 x 423 km, 51.6° (Epoch: 27 February)

Date Brightness Start Highest point End Pass type
(mag) Time Alt. Az. Time Alt. Az. Time Alt. Az.
26 Feb -2.8 05:44:54 15° SW 05:47:25 42° SSE 05:50:39 10° E visible
27 Feb -2.4 04:59:19 29° S 04:59:53 31° SSE 05:02:55 10° E visible
28 Feb -1.2 04:13:39 18° ESE 04:13:39 18° ESE 04:15:04 10° E visible
28 Feb -3.7 05:46:36 20° WSW 05:48:50 73° SSE 05:52:13 10° ENE visible
29 Feb -3.5 05:00:51 53° S 05:01:12 57° SSE 05:04:33 10° E visible
01 Mar -1.6 04:15:03 26° E 04:15:03 26° E 04:16:50 10° E visible
01 Mar -3.8 05:48:00 19° W 05:50:18 83° N 05:53:41 10° E visible
02 Mar -3.9 05:02:09 64° WSW 05:02:36 87° S 05:06:01 10° E visible
03 Mar -2.1 04:16:16 33° E 04:16:16 33° E 04:18:18 10° ENE visible
03 Mar -3.7 05:49:13 16° W 05:51:46 79° N 05:55:09 10° E visible
04 Mar -0.3 03:30:22 11° E 03:30:22 11° E 03:30:35 10° E visible
04 Mar -3.8 05:03:19 51° WNW 05:04:02 78° N 05:07:26 10° E visible
05 Mar -2.4 04:17:24 40° ENE 04:17:24 40° ENE 04:19:42 10° E visible
05 Mar -3.8 05:50:20 14° W 05:53:10 85° S 05:56:34 10° ESE visible
06 Mar -0.5 03:31:30 13° E 03:31:30 13° E 03:31:58 10° E visible
06 Mar -3.8 05:04:26 43° WNW 05:05:26 84° N 05:08:50 10° E visible
